Location: Laverne
(36.7100°N, 99.8930°W)
Time: 08:33:15
(UTC-05:00)

Daily predictions for brighter satellites

Satellite Brightness Start Highest point End
(mag) Time Altitude Azimuth Time Altitude Azimuth Time Altitude Azimuth
Cosmos 1603 4.2 19:42:15 10° S 19:47:28 38° ESE 19:52:45 10° NE
NOSS 3-2 (A) 3.8 19:41:39 10° SW 19:47:39 75° NW 19:54:11 10° NNE
SEDSat Delta rocket 4.4 19:44:26 10° WSW 19:50:42 55° S 19:57:20 10° ESE
Meteor 1-24 Rocket 3.6 19:46:09 10° N 19:51:44 79° E 19:57:07 10° SSE
OAO 3 Rocket 3.3 19:47:36 10° W 19:52:19 74° S 19:57:06 10° E
Cosmos 1452 Rocket 3.9 19:51:34 10° N 19:56:34 43° ENE 20:01:31 10° SE
MSX 4.1 19:51:43 10° S 19:57:26 77° WSW 20:03:13 10° NNW
Cosmos 2034 Rocket 4.2 19:56:11 10° SSE 20:02:11 51° E 20:08:16 10° NNE
Cosmos 1464 Rocket 4.0 19:56:24 10° S 20:02:36 71° E 20:08:45 10° N
In-Cosmos 22 4.4 19:58:14 10° N 20:03:52 50° ENE 20:09:23 10° SSE
Cosmos 1674 4.5 20:02:39 10° NE 20:04:50 14° ENE 20:06:20 12° E
SJ-6B 2.9 20:03:29 10° SSE 20:07:22 59° ENE 20:11:24 10° N
ASTRO E2 3.8 20:05:12 10° WSW 20:08:54 35° S 20:12:23 11° ESE
Cosmos 1408 Rocket 3.5 20:07:25 10° N 20:11:43 60° E 20:15:58 10° SSE
CENTAUR R/B 3.0 20:10:53 10° S 20:16:11 35° ESE 20:22:01 10° NE
ATLAS 5 CENTAUR R/B 2.6 20:13:11 10° SW 20:17:49 54° NW 20:22:50 10° NNE
Cosmos 1484 Rocket 3.9 20:14:16 10° S 20:17:58 47° W 20:21:45 10° NNW
Cosmos 724 4.4 20:12:14 10° SSW 20:18:08 89° NW 20:24:14 10° NNE
Cosmos 1758 3.3 20:17:40 10° S 20:21:44 77° E 20:25:51 10° N
ALOS 3.2 20:20:32 13° ESE 20:23:50 28° ENE 20:27:48 10° NNE
ISS -3.4 20:21:39 10° SW 20:24:53 88° SE 20:27:24 16° NE
Helios 1A 3.3 20:22:06 10° SE 20:26:06 44° ENE 20:30:07 10° N
NOSS 3-2 (C) 4.4 20:21:36 10° SW 20:27:27 49° NW 20:33:50 10° NNE
Spot 2 Rocket 3.5 20:24:53 10° SSE 20:29:49 61° ENE 20:34:48 10° N
Cosmos 1544 3.1 20:26:21 10° S 20:30:01 62° E 20:33:44 10° NNE
Cosmos 1048 Rocket 4.0 20:28:01 10° S 20:33:15 61° ESE 20:38:26 10° NNE
Cosmos 1269 Rocket 3.9 20:31:06 10° SSW 20:36:22 78° ESE 20:41:39 10° NNE
Resurs 1-3 3.7 20:32:10 10° SSE 20:36:25 52° ENE 20:40:42 10° N
SL-8 R/B 4.0 20:33:40 10° WSW 20:38:24 65° NNW 20:42:21 15° NE
METEOR-M 4.1 20:33:53 10° SSE 20:39:14 86° ENE 20:44:37 10° NNW
Cosmos 1743 Rocket 3.5 20:37:23 10° N 20:41:47 60° E 20:46:06 10° SSE
HJ-1C 3.3 20:38:35 10° SSE 20:41:56 88° ENE 20:45:18 10° N
Resurs 01 Rocket 1.5 20:37:46 10° SSE 20:42:12 81° ENE 20:46:41 10° N
SL-16 R/B 4.4 20:39:21 10° WSW 20:44:01 26° WNW 20:48:44 10° N
Meteor 1-21 Rocket 4.1 20:39:49 10° N 20:45:23 87° E 20:50:55 10° S
Cosmos 1174 4.1 20:40:58 10° SSW 20:45:54 54° ESE 20:48:25 22° NE
CZ-2D R/B 3.8 20:50:59 38° ENE 20:50:59 38° ENE 20:54:33 10° N
Cosmos 158 Rocket 3.9 20:46:49 10° S 20:51:32 51° ESE 20:56:15 10° NNE
FENGYUN 3A 3.6 20:51:25 17° SSE 20:55:31 60° ENE 21:00:49 10° N
Abrixas 4.3 20:55:17 10° W 20:57:53 26° NNW 20:58:48 22° N
Helios 1B rocket 3.2 20:57:11 10° N 21:01:11 52° WNW 21:05:11 10° SSW
USA 215 3.3 20:54:52 10° NE 21:01:25 80° NW 21:07:56 10° SW
H-2A R/B 2.9 21:03:23 52° NE 21:03:23 52° NE 21:06:50 10° N
CZ-4B DEB 3.4 21:05:06 47° N 21:05:06 47° N 21:07:34 10° N
Elektron 1 4.4 21:02:52 10° SW 21:05:44 53° NW 21:06:36 37° N
Cosmos 1346 4.4 21:04:16 10° NNW 21:07:04 38° W 21:08:14 26° SW
OAO 1 Rocket 4.4 21:03:00 10° W 21:08:21 72° S 21:09:42 50° ESE
GP-B 3.6 21:04:44 10° NNE 21:08:05 42° NE 21:08:05 42° NE
Nadezhda 4 Rocket 4.1 21:03:50 10° N 21:10:06 75° W 21:16:15 10° S
SeaSat 1 3.9 21:14:24 22° S 21:14:24 22° S 21:16:19 10° S
GPS 2-04 Rocket1 2.7 21:08:15 10° WSW 21:11:14 59° SW 21:11:14 59° SW
Cosmos 1092 Rocket 3.9 21:12:58 10° N 21:19:11 87° W 21:24:55 12° S
Gbstr 26 Del rocket 3.6 21:15:58 10° WSW 21:20:21 63° NW 21:22:26 34° NNE
Cosmos 1943 Rocket 3.4 21:17:32 10° N 21:21:09 27° NE 21:21:09 27° NE
Cosmos 2142 Rocket 4.4 21:18:03 10° S 21:24:24 84° E 21:30:50 10° N
Cosmos 1943 3.3 21:19:22 10° SSW 21:25:00 72° WNW 21:30:38 10° NNE
Cosmos 1655 Rocket 4.1 21:19:38 10° N 21:25:31 51° ENE 21:25:31 51° ENE
Cosmos 2369 Rocket 2.0 21:20:50 10° NNW 21:26:31 74° ENE 21:27:09 67° ESE
Cosmos 1733 4.1 21:24:47 10° SSW 21:28:32 48° W 21:32:18 10° N
Cosmos 2151 4.1 21:26:15 10° N 21:28:44 35° N 21:28:44 35° N
Cosmos 1470 4.2 21:27:16 10° SSW 21:30:52 36° W 21:34:30 10° N
Cosmos 2026 Rocket 3.8 21:25:12 10° N 21:31:17 64° E 21:31:32 63° E
Cosmos 1634 Rocket 4.0 21:26:00 10° S 21:32:15 80° W 21:38:29 10° N
OAO 3 Rocket 3.8 21:31:04 10° W 21:35:09 47° SW 21:35:09 47° SW
Cosmos 2263 4.3 21:30:24 10° NNW 21:35:41 61° NE 21:35:41 61° NE
Cosmos 1674 4.5 21:37:05 10° NNW 21:40:32 31° W 21:41:20 28° WSW
BREEZE-M DEB (TANK) 4.0 21:49:18 10° WNW 21:57:17 40° N 21:57:17 40° N
Cosmos 839 Rocket 4.1 21:52:52 10° NNW 22:00:10 77° WSW 22:00:25 76° SW
ALOS 4.3 21:59:05 19° SW 22:01:12 25° W 22:05:05 10° NW
ISS 0.3 21:59:57 10° WNW 22:00:06 11° NW 22:00:06 11° NW
CENTAUR R/B 3.8 22:01:05 10° WSW 22:06:42 38° NW 22:12:58 10° NNE
